Time,TemperatureF,DewpointF,PressureIn,WindDirection,WindDirectionDegrees,WindSpeedMPH,WindSpeedGustMPH,Humidity,HourlyPrecipIn,Conditions,Clouds,dailyrainin,SoftwareType,DateUTC
2013-03-06 00:01:00,37.6,29.0,29.83,NE,45,0.0,-999.0,71,-99.99,,,0.00,weatherlink.com 1.10,2013-03-06 05:01:00,
2013-03-06 00:19:00,37.9,29.0,29.83,ENE,66,0.0,-999.0,69,-99.99,,,0.00,weatherlink.com 1.10,2013-03-06 05:19:00,
2013-03-06 00:31:00,37.9,30.0,29.82,SSE,162,10.0,-999.0,72,-99.99,,,0.00,weatherlink.com 1.10,2013-03-06 05:31:00,
2013-03-06 00:46:00,36.5,30.0,29.81,NE,49,0.0,-999.0,78,-99.99,,,0.00,weatherlink.com 1.10,2013-03-06 05:46:00,
2013-03-06 01:01:00,35.0,30.0,29.80,ENE,67,1.0,-999.0,83,-99.99,,,0.00,weatherlink.com 1.10,2013-03-06 06:01:00,
2013-03-06 01:16:00,34.1,30.0,29.79,NE,50,3.0,-999.0,86,-99.99,,,0.00,weatherlink.com 1.10,2013-03-06 06:16:00,
2013-03-06 01:31:00,33.7,31.0,29.78,ENE,60,0.0,-999.0,88,-99.99,,,0.00,weatherlink.com 1.10,2013-03-06 06:31:00,
2013-03-06 01:46:00,33.4,31.0,29.76,NE,46,0.0,-999.0,90,-99.99,,,0.00,weatherlink.com 1.10,2013-03-06 06:46:00,
2013-03-06 02:01:00,33.2,31.0,29.74,NE,35,0.0,-999.0,91,-99.99,,,0.00,weatherlink.com 1.10,2013-03-06 07:01:00,
2013-03-06 02:16:00,33.4,31.0,29.73,NE,56,0.0,-999.0,92,-99.99,,,0.00,weatherlink.com 1.10,2013-03-06 07:16:00,
2013-03-06 02:31:00,33.5,32.0,29.72,NE,51,0.0,-999.0,93,-99.99,,,0.00,weatherlink.com 1.10,2013-03-06 07:31:00,
2013-03-06 02:46:00,33.8,32.0,29.71,ENE,64,0.0,-999.0,94,-99.99,,,0.00,weatherlink.com 1.10,2013-03-06 07:46:00,
2013-03-06 03:01:00,34.0,33.0,29.70,NNE,24,0.0,-999.0,94,-99.99,,,0.01,weatherlink.com 1.10,2013-03-06 08:01:00,
2013-03-06 03:16:00,34.0,33.0,29.70,NE,48,3.0,-999.0,95,-99.99,,,0.03,weatherlink.com 1.10,2013-03-06 08:16:00,
2013-03-06 03:31:00,34.1,33.0,29.68,ENE,69,7.0,-999.0,95,-99.99,,,0.05,weatherlink.com 1.10,2013-03-06 08:31:00,
2013-03-06 03:46:00,34.1,33.0,29.66,ENE,72,0.0,-999.0,95,-99.99,,,0.07,weatherlink.com 1.10,2013-03-06 08:46:00,
2013-03-06 04:01:00,34.4,33.0,29.65,NNE,21,5.0,-999.0,95,-99.99,,,0.09,weatherlink.com 1.10,2013-03-06 09:01:00,
2013-03-06 04:16:00,34.6,34.0,29.65,ENE,70,5.0,-999.0,96,-99.99,,,0.11,weatherlink.com 1.10,2013-03-06 09:16:00,
2013-03-06 04:31:00,34.7,34.0,29.65,East,81,2.0,-999.0,96,-99.99,,,0.13,weatherlink.com 1.10,2013-03-06 09:31:00,
2013-03-06 04:46:00,35.2,34.0,29.65,NE,41,3.0,-999.0,96,-99.99,,,0.17,weatherlink.com 1.10,2013-03-06 09:46:00,
2013-03-06 05:01:00,35.3,34.0,29.64,East,96,2.0,-999.0,96,-99.99,,,0.20,weatherlink.com 1.10,2013-03-06 10:01:00,
2013-03-06 05:16:00,35.5,35.0,29.64,East,96,3.0,-999.0,96,-99.99,,,0.23,weatherlink.com 1.10,2013-03-06 10:16:00,
2013-03-06 05:31:00,35.8,35.0,29.63,ESE,117,10.0,-999.0,97,-99.99,,,0.26,weatherlink.com 1.10,2013-03-06 10:31:00,
2013-03-06 05:46:00,36.5,36.0,29.64,ENE,67,2.0,-999.0,97,-99.99,,,0.27,weatherlink.com 1.10,2013-03-06 10:46:00,
2013-03-06 06:01:00,36.9,36.0,29.63,ENE,65,4.0,-999.0,97,-99.99,,,0.31,weatherlink.com 1.10,2013-03-06 11:01:00,
2013-03-06 06:16:00,37.0,36.0,29.62,NNE,28,13.0,-999.0,97,-99.99,,,0.34,weatherlink.com 1.10,2013-03-06 11:16:00,
2013-03-06 06:31:00,36.9,36.0,29.62,NE,46,10.0,-999.0,97,-99.99,,,0.37,weatherlink.com 1.10,2013-03-06 11:31:00,
2013-03-06 06:46:00,36.9,36.0,29.61,ESE,117,1.0,-999.0,97,-99.99,,,0.41,weatherlink.com 1.10,2013-03-06 11:46:00,
2013-03-06 07:01:00,36.9,36.0,29.61,NNE,31,8.0,-999.0,97,-99.99,,,0.43,weatherlink.com 1.10,2013-03-06 12:01:00,
2013-03-06 07:16:00,36.6,36.0,29.61,NE,55,10.0,-999.0,97,-99.99,,,0.47,weatherlink.com 1.10,2013-03-06 12:16:00,
2013-03-06 07:31:00,36.5,36.0,29.61,NE,43,5.0,-999.0,97,-99.99,,,0.48,weatherlink.com 1.10,2013-03-06 12:31:00,
2013-03-06 07:46:00,36.3,36.0,29.61,NE,51,4.0,-999.0,97,-99.99,,,0.50,weatherlink.com 1.10,2013-03-06 12:46:00,
2013-03-06 08:01:00,36.3,36.0,29.61,ENE,57,3.0,-999.0,97,-99.99,,,0.53,weatherlink.com 1.10,2013-03-06 13:01:00,
2013-03-06 08:16:00,36.0,35.0,29.61,North,359,0.0,-999.0,97,-99.99,,,0.57,weatherlink.com 1.10,2013-03-06 13:16:00,
2013-03-06 08:31:00,36.2,36.0,29.61,ENE,76,12.0,-999.0,97,-99.99,,,0.59,weatherlink.com 1.10,2013-03-06 13:31:00,
2013-03-06 08:46:00,36.6,36.0,29.60,ENE,63,14.0,-999.0,98,-99.99,,,0.60,weatherlink.com 1.10,2013-03-06 13:46:00,
2013-03-06 09:01:00,36.9,36.0,29.59,North,3,4.0,-999.0,98,-99.99,,,0.63,weatherlink.com 1.10,2013-03-06 14:01:00,
2013-03-06 09:16:00,37.0,37.0,29.59,East,80,3.0,-999.0,98,-99.99,,,0.66,weatherlink.com 1.10,2013-03-06 14:16:00,
2013-03-06 09:31:00,36.9,36.0,29.59,ENE,62,4.0,-999.0,97,-99.99,,,0.68,weatherlink.com 1.10,2013-03-06 14:31:00,
2013-03-06 09:46:00,36.5,36.0,29.59,NNE,32,6.0,-999.0,97,-99.99,,,0.72,weatherlink.com 1.10,2013-03-06 14:46:00,
2013-03-06 10:16:00,37.3,37.0,29.59,NE,42,17.0,-999.0,97,-99.99,,,0.75,weatherlink.com 1.10,2013-03-06 15:16:00,
2013-03-06 10:31:00,37.3,37.0,29.59,East,89,4.0,-999.0,97,-99.99,,,0.77,weatherlink.com 1.10,2013-03-06 15:31:00,
2013-03-06 10:46:00,37.6,37.0,29.58,NNE,32,0.0,-999.0,97,-99.99,,,0.78,weatherlink.com 1.10,2013-03-06 15:46:00,
2013-03-06 11:01:00,37.3,37.0,29.59,NNW,343,6.0,-999.0,97,-99.99,,,0.79,weatherlink.com 1.10,2013-03-06 16:01:00,
2013-03-06 11:16:00,37.2,37.0,29.59,NE,39,19.0,-999.0,97,-99.99,,,0.82,weatherlink.com 1.10,2013-03-06 16:16:00,
2013-03-06 11:31:00,36.5,36.0,29.60,NE,36,6.0,-999.0,96,-99.99,,,0.88,weatherlink.com 1.10,2013-03-06 16:31:00,
2013-03-06 11:46:00,36.0,35.0,29.60,North,11,6.0,-999.0,96,-99.99,,,0.95,weatherlink.com 1.10,2013-03-06 16:46:00,
2013-03-06 12:01:00,35.6,35.0,29.60,NNE,32,5.0,-999.0,96,-99.99,,,1.00,weatherlink.com 1.10,2013-03-06 17:01:00,
2013-03-06 12:16:00,35.6,35.0,29.60,NNE,23,3.0,-999.0,96,-99.99,,,1.04,weatherlink.com 1.10,2013-03-06 17:16:00,
2013-03-06 12:31:00,36.0,35.0,29.60,NW,325,10.0,-999.0,97,-99.99,,,1.07,weatherlink.com 1.10,2013-03-06 17:31:00,
2013-03-06 12:46:00,36.3,36.0,29.60,NNE,22,0.0,-999.0,97,-99.99,,,1.08,weatherlink.com 1.10,2013-03-06 17:46:00,
2013-03-06 13:01:00,36.6,36.0,29.59,North,1,9.0,-999.0,97,-99.99,,,1.10,weatherlink.com 1.10,2013-03-06 18:01:00,
2013-03-06 13:16:00,37.2,37.0,29.60,NE,39,6.0,-999.0,97,-99.99,,,1.11,weatherlink.com 1.10,2013-03-06 18:16:00,
2013-03-06 13:31:00,37.5,37.0,29.61,North,4,14.0,-999.0,96,-99.99,,,1.12,weatherlink.com 1.10,2013-03-06 18:31:00,
2013-03-06 13:46:00,37.8,37.0,29.61,North,355,6.0,-999.0,96,-99.99,,,1.14,weatherlink.com 1.10,2013-03-06 18:46:00,
2013-03-06 14:01:00,37.8,37.0,29.62,North,359,3.0,-999.0,96,-99.99,,,1.16,weatherlink.com 1.10,2013-03-06 19:01:00,
2013-03-06 14:16:00,37.3,36.0,29.62,NE,50,14.0,-999.0,95,-99.99,,,1.20,weatherlink.com 1.10,2013-03-06 19:16:00,
2013-03-06 14:31:00,37.0,36.0,29.64,North,349,5.0,-999.0,95,-99.99,,,1.25,weatherlink.com 1.10,2013-03-06 19:31:00,
2013-03-06 14:46:00,36.9,36.0,29.64,ESE,108,3.0,-999.0,95,-99.99,,,1.29,weatherlink.com 1.10,2013-03-06 19:46:00,
2013-03-06 15:01:00,37.0,36.0,29.66,NE,39,6.0,-999.0,95,-99.99,,,1.31,weatherlink.com 1.10,2013-03-06 20:01:00,
2013-03-06 15:16:00,37.3,36.0,29.68,North,2,2.0,-999.0,95,-99.99,,,1.33,weatherlink.com 1.10,2013-03-06 20:16:00,
2013-03-06 15:31:00,37.6,36.0,29.68,North,357,3.0,-999.0,95,-99.99,,,1.34,weatherlink.com 1.10,2013-03-06 20:31:00,
2013-03-06 15:46:00,37.3,36.0,29.70,NE,52,11.0,-999.0,95,-99.99,,,1.35,weatherlink.com 1.10,2013-03-06 20:46:00,
2013-03-06 16:01:00,36.9,36.0,29.71,NE,39,6.0,-999.0,95,-99.99,,,1.37,weatherlink.com 1.10,2013-03-06 21:01:00,
2013-03-06 16:16:00,37.0,36.0,29.73,East,88,11.0,-999.0,95,-99.99,,,1.38,weatherlink.com 1.10,2013-03-06 21:16:00,
2013-03-06 16:31:00,37.0,36.0,29.74,NNE,18,6.0,-999.0,95,-99.99,,,1.38,weatherlink.com 1.10,2013-03-06 21:31:00,
2013-03-06 16:46:00,37.2,36.0,29.75,ENE,68,6.0,-999.0,95,-99.99,,,1.39,weatherlink.com 1.10,2013-03-06 21:46:00,
2013-03-06 17:01:00,37.3,36.0,29.77,ENE,60,16.0,-999.0,95,-99.99,,,1.41,weatherlink.com 1.10,2013-03-06 22:01:00,
2013-03-06 17:16:00,37.5,36.0,29.78,NNW,333,12.0,-999.0,95,-99.99,,,1.42,weatherlink.com 1.10,2013-03-06 22:16:00,
2013-03-06 17:31:00,37.8,37.0,29.80,NNE,20,1.0,-999.0,95,-99.99,,,1.43,weatherlink.com 1.10,2013-03-06 22:31:00,
2013-03-06 17:46:00,37.9,37.0,29.82,ENE,58,1.0,-999.0,95,-99.99,,,1.44,weatherlink.com 1.10,2013-03-06 22:46:00,
2013-03-06 18:01:00,37.8,36.0,29.84,NW,316,1.0,-999.0,94,-99.99,,,1.44,weatherlink.com 1.10,2013-03-06 23:01:00,
2013-03-06 18:16:00,37.8,36.0,29.84,North,0,3.0,-999.0,94,-99.99,,,1.45,weatherlink.com 1.10,2013-03-06 23:16:00,
2013-03-06 18:31:00,38.0,37.0,29.85,NNW,333,9.0,-999.0,94,-99.99,,,1.45,weatherlink.com 1.10,2013-03-06 23:31:00,
2013-03-06 18:46:00,38.2,36.0,29.86,North,6,5.0,-999.0,93,-99.99,,,1.46,weatherlink.com 1.10,2013-03-06 23:46:00,
2013-03-06 19:01:00,38.6,37.0,29.88,NNW,341,10.0,-999.0,92,-99.99,,,1.46,weatherlink.com 1.10,2013-03-07 00:01:00,
2013-03-06 19:16:00,38.8,36.0,29.89,NW,326,3.0,-999.0,91,-99.99,,,1.46,weatherlink.com 1.10,2013-03-07 00:16:00,
2013-03-06 19:31:00,38.6,36.0,29.90,NE,56,5.0,-999.0,90,-99.99,,,1.47,weatherlink.com 1.10,2013-03-07 00:31:00,
2013-03-06 19:46:00,38.3,36.0,29.90,NNE,16,10.0,-999.0,90,-99.99,,,1.47,weatherlink.com 1.10,2013-03-07 00:46:00,
2013-03-06 20:01:00,38.2,36.0,29.90,ENE,74,10.0,-999.0,90,-99.99,,,1.47,weatherlink.com 1.10,2013-03-07 01:01:00,
2013-03-06 20:16:00,38.2,35.0,29.91,NNW,338,12.0,-999.0,89,-99.99,,,1.47,weatherlink.com 1.10,2013-03-07 01:16:00,
2013-03-06 20:31:00,38.2,35.0,29.92,North,358,2.0,-999.0,88,-99.99,,,1.47,weatherlink.com 1.10,2013-03-07 01:31:00,
2013-03-06 20:46:00,38.3,35.0,29.91,North,0,5.0,-999.0,86,-99.99,,,1.47,weatherlink.com 1.10,2013-03-07 01:46:00,
2013-03-06 21:01:00,38.6,34.0,29.92,NNW,345,0.0,-999.0,84,-99.99,,,1.47,weatherlink.com 1.10,2013-03-07 02:01:00,
2013-03-06 21:16:00,39.2,34.0,29.92,NW,322,4.0,-999.0,80,-99.99,,,1.47,weatherlink.com 1.10,2013-03-07 02:16:00,
2013-03-06 21:31:00,39.5,33.0,29.92,North,359,5.0,-999.0,77,-99.99,,,1.47,weatherlink.com 1.10,2013-03-07 02:31:00,
2013-03-06 21:46:00,39.5,33.0,29.92,NW,323,7.0,-999.0,76,-99.99,,,1.47,weatherlink.com 1.10,2013-03-07 02:46:00,
2013-03-06 22:01:00,39.8,32.0,29.93,NNW,345,2.0,-999.0,74,-99.99,,,1.47,weatherlink.com 1.10,2013-03-07 03:01:00,
2013-03-06 22:16:00,39.9,32.0,29.93,WNW,294,6.0,-999.0,73,-99.99,,,1.47,weatherlink.com 1.10,2013-03-07 03:16:00,
2013-03-06 22:31:00,40.1,32.0,29.94,NNW,348,5.0,-999.0,73,-99.99,,,1.47,weatherlink.com 1.10,2013-03-07 03:31:00,
2013-03-06 22:46:00,40.3,32.0,29.94,NNW,330,9.0,-999.0,71,-99.99,,,1.47,weatherlink.com 1.10,2013-03-07 03:46:00,
2013-03-06 23:01:00,40.3,31.0,29.95,NNW,340,2.0,-999.0,70,-99.99,,,1.47,weatherlink.com 1.10,2013-03-07 04:01:00,
2013-03-06 23:16:00,40.5,31.0,29.95,WNW,295,4.0,-999.0,68,-99.99,,,1.47,weatherlink.com 1.10,2013-03-07 04:16:00,
2013-03-06 23:31:00,40.5,30.0,29.95,North,1,2.0,-999.0,67,-99.99,,,1.47,weatherlink.com 1.10,2013-03-07 04:31:00,
2013-03-06 23:46:00,40.3,30.0,29.95,North,359,3.0,-999.0,67,-99.99,,,1.47,weatherlink.com 1.10,2013-03-07 04:46:00,